Location: Chippewa Lake
(41.0698°N, 81.9010°W)
Time: 21:59:42
(UTC+00:00)

Cosmos 44 Rocket - Pass Details

Date: 09 May 2021
Orbit: 636 x 754 km, 65.1° (Epoch: 16 June)

Event Time Altitude Azimuth Distance (km) Brightness Sun altitude
Rises 07:17:00 0° 325° (NW) 3,208 7.0 -25.9°
Reaches altitude 10° 07:19:26 10° 323° (NW) 2,274 6.2 -25.7°
Enters shadow 07:23:59 61° 284° (WNW) 837 3.5 -25.2°
